Home > Weather > Barsinghausen > Past weeks

Flag for Germany Past Weather in Barsinghausen, Lower Saxony, Germany — Yesterday and Last 2 Weeks

Now
66 °F

Mild.


Feels Like: 66 °F
Forecast: 58 / 72 °F
Wind: 5 mph from Northwest

Location: Wunstorf Airport

Current Time: Jul 26, 2016 at 4:45:38 AM

Latest Report: Jul 26, 2016 at 3:20 AM


Visibility: 5 mi

Pressure: 30.09 "Hg

Humidity: 88%

Dew Point: 63 °F

Location of BarsinghausenLocation

Past Weather in Barsinghausen — Graph

°F

Barsinghausen Temperature Yesterday

Maximum temperature yesterday: 82 °F (at 3:20 PM)
Minimum temperature yesterday: 68 °F (at 1:20 AM)
Average temperature yesterday: 75 °F

High & Low Weather Summary for the Past Weeks

 TemperatureHumidityPressure
High88 °F (Jul 20, 3:20 PM)94% (Jul 13, 2:20 AM)30.24 "Hg (Jul 13, 2:20 AM)
Low52 °F (Jul 16, 3:20 AM)27% (Jul 24, 3:20 PM)29.74 "Hg (Jul 11, 3:20 AM)
Average69 °F68%30.03 "Hg
* Reported Jul 11 3:20 AM — Jul 26 3:20 AM, Barsinghausen, Weather by CustomWeather, © 2016

Note: Actual official high and low records may vary slightly from our data, if they occured in-between our weather recording intervals... More about our weather records

Advertising

Barsinghausen Weather History for the Previous 24 Hours

Scroll right to see more
 ConditionsComfort  
Time TempWeatherWind HumidityBarometerVisibility
3:20 AM
Tue, Jul 26
66 °FMild.5 mph88%30.09 "Hg5 mi
2:20 AM66 °FMild.6 mph88%30.09 "Hg5 mi
1:20 AM68 °FMild.7 mph83%30.09 "Hg4 mi
12:20 AM68 °FMild.8 mph83%30.09 "Hg6 mi
11:20 PM
Mon, Jul 25
72 °FMild.10 mph73%30.09 "HgN/A
10:20 PM75 °FMild.6 mph65%30.07 "HgN/A
9:20 PM75 °FMild.6 mph65%30.07 "HgN/A
8:20 PM77 °FWarm.13 mph57%30.04 "HgN/A
7:20 PM79 °FScattered clouds.16 mph54%30.04 "HgN/A
6:20 PM81 °FScattered clouds.9 mph51%30.04 "HgN/A
5:20 PM82 °FScattered clouds.8 mph42%30.04 "HgN/A
4:20 PM82 °FBroken clouds.12 mph45%30.04 "HgN/A
3:20 PM82 °FPartly sunny.9 mph48%30.04 "HgN/A
2:20 PM81 °FPartly sunny.8 mph54%30.04 "HgN/A
1:20 PM79 °FBroken clouds.6 mph58%30.04 "HgN/A
12:20 PM75 °FRain showers. Broken clouds.12 mph69%30.04 "HgN/A
11:20 AM79 °FBroken clouds.8 mph58%30.07 "HgN/A
10:20 AM75 °FBroken clouds.5 mph65%30.07 "HgN/A
9:20 AM75 °FPartly sunny.1 mph65%30.07 "HgN/A
8:20 AM72 °FPartly sunny.5 mph73%30.04 "HgN/A
7:20 AM70 °FPartly sunny.3 mph83%30.04 "HgN/A
6:20 AM68 °FPassing clouds.3 mph88%30.04 "HgN/A
5:20 AM68 °FPassing clouds.2 mph88%30.04 "HgN/A
4:20 AM68 °FMild.1 mph88%30.04 "Hg5 mi
Weather by CustomWeather, © 2016

See weather overviewHow to use our weather pages